Find Starlink 33726

NORAD ID: 63437 Int'l Des: 2025-069 Owner: SPXS Country: US Constellation: starlink operational
LEOCIRCULAR

Live-Position

3D-Globus wird geladen...

Über Starlink 33726

Beschreibung wird geladen...

Nächste Überflüge

Passes for default location (London). Set your location on the main map for personalized predictions.

Höhenverlauf

Loading altitude history...

Zweizeiliger Elementsatz

1 63437U 25069E 26124.32854042 .00046481 00000-0 10702-2 0 9993
2 63437 53.1603 243.3061 0001720 102.8700 257.2499 15.42185567 61885
Epoch: 4. Mai 2026 • Age: 9 hours

Aktueller Status

Höhe 439.7 km
Geschwindigkeit 7.65 km/s
Subsatellitenpunkt 10.77°N, 127.87°E
Startdatum 4. Apr. 2025
Alter 1 years
Typ internet

Technische Details

Klassifizierung Payload
Masse 575.00 kg
Trockenmasse 530.00 kg
Gesamtmasse 575.00 kg
Länge 0.30 m
Durchmesser 4.10 m
Spannweite 29.00 m
Form Box + pan
Hersteller SPXS
Bus-Typ Starlink V2MO
Phasenstatus In Orbit
Besitzer/Staat SPXS/US

Most Searched